Regional Weather Roundup
Issued by NWS

Home | Current Version | Previous Version | Graphics & Text | Print | Product List | Glossary On
Versions: 1 2 3 4 5 6 7 8 9 10 11 12 13 14 15 16 17 18 19 20 21 22 23 24 25 26 27 28 29 30 31 32 33 34 35 36 37 38 39 40 41 42 43 44 45 46 47 48 49 50
000
ASUS43 KLSX 221607
RWRMO

WEATHER SUMMARY FOR MISSOURI
NATIONAL WEATHER SERVICE SPRINGFIELD MO
1000 AM CST MON JAN 22 2018

NOTE: "FAIR" INDICATES FEW OR NO CLOUDS BELOW 12,000 FEET WITH NO
       SIGNIFICANT WEATHER AND/OR OBSTRUCTIONS TO VISIBILITY.
       CURRENT SKY AND/OR WEATHER CONDITIONS ARE NOT AVAILABLE FOR
       CHILLICOTHE AND FARMINGTON.

MOZ001>031-035>038-043-044-053-054-221700-
...NORTHERN AND WESTERN MISSOURI...

CITY           SKY/WX    TMP DP  RH WIND       PRES   REMARKS
KANSAS CTY INT DRIZZLE   36  34  92 S13       29.45S WCI  27
KANSAS C DTWN  CLOUDY    38  33  82 S13       29.48R WCI  30
LEE`S SUMMIT   CLOUDY    37  34  89 S18       29.49R WCI  27
ST JOSEPH      CLOUDY    36  35  96 S15       29.45R FOG     WCI  27
CHILLICOTHE      N/A     40  32  73 S17G24    29.49R
KIRKSVILLE     MOSUNNY   44  38  79 SW17G28   29.48R

$$
MOZ066>068-077>081-088>096-101>105-221700-
...SOUTHWEST MISSOURI...

CITY           SKY/WX    TMP DP  RH WIND       PRES   REMARKS
SPRINGFIELD    CLOUDY    40  30  67 SW23G33   29.63S WCI  30
JOPLIN         CLOUDY    40  29  64 SW24G41   29.63R WCI  29
BRANSON        MOSUNNY   41  28  60 SW17G29   29.68S

$$
MOZ032>034-039>042-045>050-055>058-069>072-221700-
...CENTRAL MISSOURI...

CITY           SKY/WX    TMP DP  RH WIND       PRES   REMARKS
COLUMBIA       SUNNY     45  35  68 SW23G30   29.56R
JEFFERSON CITY SUNNY     47  33  58 SW14G23   29.58S
ROLLA          SUNNY     49  37  63 SW18G28   29.59S
SEDALIA        CLOUDY    41  34  76 SW18G28   29.56R
WHITEMAN AFB   CLOUDY    39  32  74 SW23      29.49S WCI  29
WARRENSBURG    CLOUDY    37  32  81 S16G23    29.52S WCI  28

$$
MOZ051-052-059>065-221700-
...EAST CENTRAL MISSOURI...

CITY           SKY/WX    TMP DP  RH WIND       PRES   REMARKS
ST LOUIS INTL  MOSUNNY   58  50  75 S16G25    29.59S
SPIRIT OF STL  SUNNY     58  47  66 S12G23    29.57F
ST CHARLES     SUNNY     58  49  72 S18G30    29.57S

$$
MOZ072>076-082>087-097>100-106>115-221700-
...SOUTH CENTRAL AND SOUTHEAST MISSOURI...

CITY           SKY/WX    TMP DP  RH WIND       PRES   REMARKS
CAPE GIRARDEAU FAIR      55  49  80 S21G29    29.70F
FARMINGTON     FAIR      56  50  80 S17G23    29.63F
POPLAR BLUFF   FAIR      54  48  80 S12       29.70S
WEST PLAINS    MOSUNNY   48  36  63 W14G25    29.66S

$$


USA.gov is the U.S. government's official web portal to all federal, state and local government web resources and services.